Location: Beaurecueil
(43.5122°N, 5.5450°E)
Time: 15:54:51
(UTC+00:00)

FREGAT/IRIS - Pass Details

Date: 18 September 2020
Orbit: 309 x 312 km, 96.9° (Epoch: 21 October)

Event Time Altitude Azimuth Distance (km) Brightness Sun altitude
Exits shadow 19:02:51 28° 48° (NE) 649 3.4 -15.3°
Drops below altitude 10° 19:04:43 10° 8° (N) 1,252 5.3 -15.6°
Sets 19:06:43 0° 358° (N) 2,094 6.6 -15.9°
